{"data":{"norad_id":42432,"epoch":"2026-09-19T11:31:15.762720Z","epoch_age_seconds":102425,"freshness":"FRESH","line1":"1 42432U 17017A   26262.48004355 -.00000277  00000+0  00000+0 0  9993","line2":"2 42432   0.0168 111.7672 0002824  66.7932 285.7639  1.00272759 34703","mean_motion":1.00272759,"eccentricity":0.0002824,"inclination_deg":0.0168,"raan_deg":111.7672,"arg_perigee_deg":66.7932,"mean_anomaly_deg":285.7639,"bstar":0,"rev_number":3470,"period_min":1436.0829544942,"perigee_km":35774.414672646,"apogee_km":35798.229159041,"semimajor_km":42164.458915844,"source":"CELESTRAK","updated_at":"2026-09-20T09:00:35.684677Z"}}